Date String (YYYY-MM-DD hh:mm:ss) UTC,Instrument flags,Ambient pressure (hPa),Sample flow (lpm),Bypass flow (lpm),Sample temperature (°C),Ambient temperature (°C),ASC tube jacket temperature (°C),LED temperature (°C),Box temperature (°C),Sample RH (%),Span deviation,Mass concentration (μg/m³),Mass concentration (μg/m³),Mass concentration (μg/m³)
DateTimeUTC,F1_M11,P_M11,Q1_M11,Q2_M11,T1_M11,T2_M11,T3_M11,T4_M11,T5_M11,U1_M11,ZSPAN_M11,X0_M11,X2_M11,X1_M11
2022-05-21 16:00:00,,0831.6,5.01,0.00,24.2,23.4,00.0,33.0,26.2,18.2,0000.0,0002.15,0000.12,0000.02
2022-05-21 16:01:00,,0831.6,4.99,0.00,24.2,23.4,00.0,33.0,26.2,17.7,0000.0,0002.97,0000.13,0000.03
2022-05-21 16:02:00,,0831.6,5.01,0.00,24.2,23.4,00.0,33.0,26.2,17.7,0000.0,0002.94,0000.13,0000.03
2022-05-21 16:03:00,,0831.6,5.00,0.00,24.2,23.4,00.0,33.0,26.2,17.6,0000.0,0002.82,0000.12,0000.03
2022-05-21 16:04:00,,0831.6,5.00,0.00,24.2,23.4,00.0,33.1,26.2,17.1,0000.0,0002.86,0000.10,0000.03
2022-05-21 16:05:00,,0831.5,5.01,0.00,24.2,23.5,00.0,33.1,26.2,16.8,0000.0,0002.94,0000.10,0000.03
2022-05-21 16:06:00,,0831.6,5.00,0.00,24.3,23.5,00.0,33.1,26.3,16.7,0000.0,0002.82,0000.09,0000.03
2022-05-21 16:07:00,,0831.6,4.99,0.00,24.3,23.5,00.0,33.1,26.3,16.8,0000.0,0002.69,0000.08,0000.03
2022-05-21 16:08:00,,0831.6,5.01,0.00,24.3,23.5,00.0,33.1,26.3,16.9,0000.0,0002.48,0000.11,0000.03
2022-05-21 16:09:00,,0831.6,4.99,0.00,24.3,23.5,00.0,33.1,26.3,16.8,0000.0,0002.67,0000.13,0000.03
2022-05-21 16:10:00,,0831.6,5.01,0.00,24.3,23.6,00.0,33.1,26.3,16.7,0000.0,0004.20,0000.16,0000.03
2022-05-21 16:11:00,,0831.6,4.98,0.00,24.3,23.6,00.0,33.2,26.3,16.7,0000.0,0005.01,0000.16,0000.03
2022-05-21 16:12:00,,0831.6,5.01,0.00,24.4,23.6,00.0,33.2,26.4,16.6,0000.0,0004.76,0000.17,0000.04
2022-05-21 16:13:00,,0831.6,4.99,0.00,24.4,23.6,00.0,33.2,26.4,16.6,0000.0,0004.77,0000.17,0000.04
2022-05-21 16:14:00,,0831.6,5.00,0.00,24.4,23.6,00.0,33.2,26.4,16.4,0000.0,0004.80,0000.19,0000.04
2022-05-21 16:15:00,,0831.6,5.01,0.00,24.4,23.6,00.0,33.2,26.4,16.1,0000.0,0004.81,0000.19,0000.04
2022-05-21 16:16:00,,0831.6,4.99,0.00,24.4,23.7,00.0,33.2,26.4,15.9,0000.0,0003.93,0000.19,0000.04
2022-05-21 16:17:00,,0831.5,5.00,0.00,24.4,23.7,00.0,33.2,26.4,16.1,0000.0,0003.67,0000.20,0000.04
2022-05-21 16:18:00,,0831.6,4.99,0.00,24.5,23.7,00.0,33.3,26.5,16.8,0000.0,0003.62,0000.20,0000.04
2022-05-21 16:19:00,,0831.6,5.01,0.00,24.5,23.7,00.0,33.3,26.5,17.3,0000.0,0003.58,0000.19,0000.04
2022-05-21 16:20:00,,0831.6,5.00,0.00,24.5,23.7,00.0,33.3,26.5,17.1,0000.0,0004.58,0000.18,0000.04
2022-05-21 16:21:00,,0831.6,5.01,0.00,24.5,23.7,00.0,33.3,26.5,17.3,0000.0,0003.83,0000.16,0000.04
2022-05-21 16:22:00,,0831.6,5.00,0.00,24.5,23.7,00.0,33.3,26.4,17.2,0000.0,0003.16,0000.17,0000.04
2022-05-21 16:23:00,,0831.6,4.99,0.00,24.5,23.7,00.0,33.3,26.5,17.2,0000.0,0002.47,0000.17,0000.03
2022-05-21 16:24:00,,0831.6,5.01,0.00,24.5,23.7,00.0,33.3,26.5,17.1,0000.0,0002.61,0000.19,0000.03
2022-05-21 16:25:00,,0831.6,4.99,0.00,24.5,23.7,00.0,33.3,26.5,16.6,0000.0,0002.58,0000.18,0000.03
2022-05-21 16:26:00,,0831.6,5.01,0.00,24.5,23.7,00.0,33.4,26.5,16.6,0000.0,0002.56,0000.18,0000.03
2022-05-21 16:27:00,,0831.6,5.00,0.00,24.5,23.8,00.0,33.4,26.5,16.6,0000.0,0002.52,0000.17,0000.03
2022-05-21 16:28:00,,0831.7,4.99,0.00,24.6,23.8,00.0,33.4,26.5,16.5,0000.0,0002.54,0000.16,0000.03
2022-05-21 16:29:00,,0831.7,5.01,0.00,24.6,23.8,00.0,33.4,26.5,17.0,0000.0,0002.59,0000.14,0000.02
2022-05-21 16:30:00,,0831.7,4.99,0.00,24.6,23.8,00.0,33.4,26.6,17.1,0000.0,0002.56,0000.13,0000.02
2022-05-21 16:31:00,,0831.7,5.01,0.00,24.6,23.8,00.0,33.4,26.6,17.4,0000.0,0001.29,0000.11,0000.02
2022-05-21 16:32:00,,0831.7,4.99,0.00,24.6,23.8,00.0,33.4,26.6,17.3,0000.0,0000.68,0000.10,0000.02
2022-05-21 16:33:00,,0831.7,5.01,0.00,24.6,23.8,00.0,33.4,26.5,17.7,0000.0,0000.49,0000.09,0000.02
2022-05-21 16:34:00,,0831.6,4.99,0.00,24.6,23.8,00.0,33.4,26.5,17.4,0000.0,0000.49,0000.09,0000.02
2022-05-21 16:35:00,,0831.6,5.01,0.00,24.6,23.8,00.0,33.4,26.5,17.3,0000.0,0000.49,0000.09,0000.02
2022-05-21 16:36:00,,0831.6,4.99,0.00,24.6,23.8,00.0,33.5,26.6,17.4,0000.0,0001.54,0000.12,0000.02
2022-05-21 16:37:00,,0831.6,5.01,0.00,24.6,23.8,00.0,33.5,26.6,17.5,0000.0,0002.85,0000.12,0000.02
2022-05-21 16:38:00,,0831.6,4.99,0.00,24.6,23.8,00.0,33.5,26.6,17.3,0000.0,0002.85,0000.12,0000.02
2022-05-21 16:39:00,,0831.6,5.01,0.00,24.6,23.8,00.0,33.5,26.6,17.4,0000.0,0002.77,0000.11,0000.02
2022-05-21 16:40:00,,0831.6,4.99,0.00,24.7,23.8,00.0,33.5,26.6,17.4,0000.0,0002.68,0000.10,0000.02
2022-05-21 16:41:00,,0831.7,5.00,0.00,24.7,23.9,00.0,33.5,26.6,17.4,0000.0,0002.67,0000.10,0000.02
2022-05-21 16:42:00,,0831.7,5.00,0.00,24.7,23.9,00.0,33.5,26.6,17.3,0000.0,0003.14,0000.11,0000.02
2022-05-21 16:43:00,,0831.7,5.01,0.00,24.7,23.9,00.0,33.5,26.7,17.2,0000.0,0004.69,0000.14,0000.02
2022-05-21 16:44:00,,0831.7,4.99,0.00,24.7,23.9,00.0,33.5,26.6,17.2,0000.0,0004.78,0000.14,0000.02
2022-05-21 16:45:00,,0831.6,5.00,0.00,24.7,23.9,00.0,33.5,26.7,17.4,0000.0,0004.78,0000.15,0000.03
2022-05-21 16:46:00,,0831.6,5.00,0.00,24.7,23.9,00.0,33.6,26.7,17.0,0000.0,0005.00,0000.15,0000.03
2022-05-21 16:47:00,,0831.6,5.00,0.00,24.7,23.9,00.0,33.6,26.7,17.1,0000.0,0004.36,0000.15,0000.02
2022-05-21 16:48:00,,0831.6,5.01,0.00,24.7,23.9,00.0,33.6,26.7,16.7,0000.0,0003.44,0000.16,0000.03
2022-05-21 16:49:00,,0831.6,5.01,0.00,24.7,23.9,00.0,33.6,26.7,16.6,0000.0,0003.80,0000.17,0000.03
2022-05-21 16:50:00,,0831.6,4.99,0.00,24.8,24.0,00.0,33.6,26.7,16.8,0000.0,0003.92,0000.19,0000.03
2022-05-21 16:51:00,,0831.5,5.01,0.00,24.8,24.0,00.0,33.6,26.7,16.6,0000.0,0003.93,0000.19,0000.03
2022-05-21 16:52:00,,0831.6,4.98,0.00,24.8,24.0,00.0,33.6,26.8,16.8,0000.0,0003.93,0000.19,0000.03
2022-05-21 16:53:00,,0831.6,5.01,0.00,24.8,24.0,00.0,33.6,26.8,16.9,0000.0,0003.26,0000.17,0000.03
2022-05-21 16:54:00,,0831.6,5.00,0.00,24.8,24.0,00.0,33.6,26.8,16.8,0000.0,0001.89,0000.17,0000.03
2022-05-21 16:55:00,,0831.6,5.00,0.00,24.8,24.1,00.0,33.7,26.8,17.1,0000.0,0001.91,0000.19,0000.03
2022-05-21 16:56:00,,0831.6,5.01,0.00,24.8,24.1,00.0,33.7,26.8,17.2,0000.0,0001.93,0000.19,0000.03
2022-05-21 16:57:00,,0831.6,5.00,0.00,24.9,24.1,00.0,33.7,26.8,17.4,0000.0,0001.77,0000.17,0000.03
2022-05-21 16:58:00,,0831.6,5.01,0.00,24.9,24.1,00.0,33.7,26.8,17.2,0000.0,0001.26,0000.16,0000.03
2022-05-21 16:59:00,,0831.7,5.01,0.00,24.9,24.1,00.0,33.7,26.8,16.7,0000.0,0001.26,0000.15,0000.02
